Wind_Speed
28 29 26 25 26 27 25 24 24 23 24 23 23 22 22 21 22 20 20 21 21 21 22 22 22 19 18 17 13 21 20 19 19 18 14 17 19 19 28 31 29 37 36 36 35 32 27
25 24 26 26 24 23 24 24 23 23 24 23 22 22 22 22 22 22 22 21 21 22 23 22 22 20 19 17 15 22 22 20 16 19 17 18 17 18 24 26 32 33 29 29 29 29 27
21 21 23 22 21 22 21 22 22 22 23 23 23 21 21 22 22 23 22 21 21 22 22 23 22 20 19 17 18 21 24 22 17 19 13 15 18 20 21 25 28 30 31 31 32 31 32
21 20 19 19 18 18 19 20 21 23 23 23 23 22 21 21 21 23 23 22 22 23 22 22 23 22 19 20 20 18 20 20 18 16 14 15 22 26 28 25 26 23 28 33 35 32 34
20 18 18 20 16 17 19 21 23 24 25 24 23 22 21 21 22 22 23 21 21 23 24 24 25 22 20 21 17 18 20 15 18 18 15 15 28 28 29 24 23 27 29 30 31 29 26
21 20 20 22 22 21 22 23 25 27 27 25 24 22 21 21 23 23 23 22 22 24 24 24 27 24 17 18 20 21 17 15 15 12 14 13 23 30 28 27 21 24 18 23 24 26 24
18 19 21 21 23 26 29 28 27 26 26 25 24 23 22 22 22 23 23 22 20 24 25 25 25 24 24 24 21 17 15 19 17 13 15 14 19 29 28 27 24 22 22 21 23 21 20
22 25 26 28 28 26 25 26 25 25 25 26 24 23 22 22 22 22 24 25 23 24 28 22 26 29 23 24 26 18 19 23 17 13 12 13 21 18 20 25 22 26 27 26 26 26 17
27 27 25 24 24 25 25 26 26 27 26 26 25 23 22 21 21 22 24 24 24 24 31 23 22 24 23 25 17 12 18 19 16 12 11 16 13 9 14 21 26 23 32 32 27 27 27
23 20 19 19 18 19 21 23 24 26 27 27 25 23 23 21 19 21 23 21 21 19 20 24 22 13 17 17 9 6 6 15 18 17 15 15 19 22 20 21 22 32 28 19 23 23 17
15 14 14 16 17 18 19 21 22 25 27 27 26 23 22 22 18 20 21 20 17 12 5 5 7 7 11 10 7 3 4 18 20 18 15 10 12 12 18 25 17 27 29 21 19 16 15
12 12 13 14 16 18 20 21 22 23 24 25 26 23 21 24 18 21 19 16 13 5 8 7 7 8 10 10 7 5 3 13 15 18 17 18 18 18 16 12 23 17 13 21 17 17 8
11 13 14 16 18 20 21 21 22 24 23 23 24 23 22 20 16 21 16 15 7 8 4 3 9 15 8 11 14 14 11 10 13 13 17 10 14 12 13 13 19 23 8 4 7 6 6
14 15 17 19 20 22 22 23 23 23 23 23 22 21 20 16 17 19 16 13 10 8 16 16 4 17 14 12 12 19 22 15 12 14 7 4 5 5 5 16 14 20 18 3 4 3 1
16 17 19 21 22 23 24 23 23 22 23 23 22 21 16 14 15 16 17 18 13 16 8 14 8 4 13 13 20 17 27 19 8 8 9 4 6 6 10 6 11 10 15 23 3 3 2
19 20 21 23 24 25 23 22 22 21 21 22 21 19 13 13 14 16 20 28 26 22 12 10 7 5 10 10 1 17 18 11 15 13 12 4 6 3 4 12 10 13 14 5 11 2 4
21 22 22 24 26 25 23 23 22 21 22 22 21 16 10 7 13 19 27 32 31 28 25 18 11 17 15 12 10 5 10 11 13 9 12 9 11 5 3 10 12 14 12 11 8 9 1
22 23 24 25 25 24 23 22 21 20 21 21 21 14 10 8 16 18 26 26 26 30 18 20 23 13 9 12 9 4 3 2 6 10 9 6 5 10 15 13 16 17 16 14 7 7 15
24 25 25 26 25 24 23 20 19 18 18 20 20 17 13 15 15 26 24 27 26 28 21 23 15 13 8 7 7 5 3 4 1 4 4 3 2 5 3 3 15 12 18 15 20 16 9
26 26 27 27 26 24 22 19 17 12 12 15 17 11 11 18 20 20 19 25 23 24 24 17 23 18 14 11 8 7 5 2 3 5 10 12 3 5 7 6 7 11 12 18 26 8 13
27 26 27 26 25 23 21 17 16 15 13 16 18 19 16 10 7 9 17 23 28 30 16 19 18 18 16 15 11 11 9 12 10 16 12 8 11 11 10 15 21 16 19 21 24 30 15
28 27 26 25 24 21 19 17 13 18 20 21 22 23 22 21 20 18 18 23 23 18 24 20 19 18 17 16 15 18 13 13 7 6 4 5 6 10 13 11 13 23 24 22 25 25 29
28 26 25 24 23 18 14 13 14 15 20 23 24 26 22 24 22 19 18 13 15 13 15 18 11 14 20 15 15 17 12 13 14 13 12 10 8 10 7 10 18 15 18 21 29 20 28
27 25 24 23 20 15 13 11 10 15 20 22 21 22 22 26 24 22 23 23 16 19 21 18 14 7 8 18 14 12 15 15 19 21 20 19 16 13 11 18 4 4 7 10 18 21 25
26 24 23 20 18 14 15 16 13 14 19 24 24 23 22 25 22 18 16 21 17 20 17 12 12 6 6 6 12 11 11 15 22 23 23 24 21 13 8 12 22 21 3 5 10 14 19
24 23 22 19 17 18 19 21 17 19 24 27 25 25 26 24 23 20 9 11 12 13 7 8 9 7 5 3 3 4 4 3 3 3 2 6 24 22 12 3 4 4 6 6 4 12 16
22 22 20 20 20 20 21 24 19 17 20 23 33 24 25 25 25 19 10 10 11 12 8 5 6 3 6 4 5 5 6 6 5 5 8 6 11 27 23 13 14 26 18 11 6 4 18
22 21 21 21 19 19 21 25 20 17 18 19 26 23 27 27 25 18 12 18 14 11 11 6 2 2 5 8 4 5 6 5 6 8 10 9 7 16 23 12 13 9 8 15 12 11 21
22 21 20 18 17 18 20 22 22 19 18 18 22 20 23 25 19 18 21 20 14 11 13 14 13 11 2 4 6 5 6 6 9 12 11 9 13 9 15 16 0 7 13 14 13 16 18
Wind_Direction
271 277 276 274 279 280 279 282 285 287 287 288 291 293 293 292 290 288 284 283 284 283 279 276 275 277 276 275 280 258 269 277 276 266 264 246 248 250 246 241 239 235 243 242 249 251 248
272 270 274 279 279 279 281 283 287 288 290 291 289 291 292 292 292 290 290 287 284 281 281 280 280 279 275 280 274 275 272 267 261 249 257 243 243 233 244 241 236 241 243 245 240 241 242
265 278 276 278 282 287 286 287 289 291 291 292 290 291 291 291 293 290 289 285 282 279 277 278 278 277 275 280 274 276 276 271 264 256 256 247 233 237 236 232 231 237 245 243 238 245 248
268 269 279 282 281 285 290 296 299 298 297 294 294 293 291 290 290 289 289 288 289 285 281 277 277 277 275 274 277 269 267 263 257 244 253 223 220 232 237 242 235 240 240 251 238 239 247
258 271 271 280 298 300 296 292 286 284 285 289 290 291 293 293 289 288 288 290 290 285 284 283 280 279 279 277 257 260 261 248 250 247 249 217 220 234 235 243 252 238 250 246 256 250 263
265 272 275 277 284 286 282 280 280 281 283 285 287 288 290 290 288 289 291 291 286 284 281 280 279 280 269 254 257 271 269 264 265 256 251 245 222 234 236 233 237 238 250 250 263 252 252
265 265 270 271 269 269 272 276 279 281 283 284 285 287 288 288 290 293 291 288 285 285 282 276 270 267 270 277 266 261 262 261 259 243 238 236 231 235 233 232 237 243 246 263 250 238 270
261 269 273 275 278 279 280 283 283 285 285 284 285 286 285 287 291 294 292 295 296 292 283 269 275 272 267 252 259 260 243 242 241 234 235 231 247 259 240 230 241 241 247 255 256 241 277
275 275 276 276 278 280 282 284 286 287 286 285 286 285 283 284 287 289 288 293 298 303 299 285 272 268 258 243 239 221 249 241 221 217 223 238 266 274 249 243 248 252 249 252 273 269 276
276 278 280 282 284 290 291 291 290 287 287 285 284 285 285 280 283 282 284 290 297 310 302 297 272 243 234 228 230 233 227 212 202 227 229 254 262 263 253 250 242 237 236 245 270 279 259
273 281 282 289 295 296 295 295 290 289 290 290 287 285 284 279 280 278 281 289 299 304 311 294 218 209 202 200 190 194 212 211 212 222 228 248 267 285 263 262 249 239 227 240 273 287 279
278 285 291 299 302 303 302 303 299 296 293 292 289 285 278 278 275 271 276 278 279 247 254 223 229 233 217 190 205 208 194 208 232 230 242 259 274 280 272 298 231 225 259 239 270 277 256
286 294 304 312 311 309 305 303 301 298 297 293 291 286 275 273 270 270 270 268 228 212 255 213 237 231 231 200 212 227 229 219 221 208 241 275 275 289 272 265 230 213 240 218 228 217 237
295 301 307 311 312 312 307 304 300 299 299 297 297 293 279 272 261 258 252 233 222 240 251 284 296 219 216 220 253 248 232 221 236 228 217 244 292 285 305 250 217 198 209 242 211 219 275
294 300 306 308 309 307 303 299 296 296 297 299 303 297 308 262 252 250 238 220 227 245 285 335 287 245 226 244 252 222 220 235 230 235 214 210 257 255 283 231 191 186 217 236 347 298 293
295 299 303 305 304 300 298 295 293 291 289 288 289 298 309 263 247 237 231 236 245 235 250 318 336 3 349 343 128 208 212 217 217 230 218 203 284 310 273 205 214 238 204 198 211 239 222
292 297 301 301 298 297 295 289 283 280 279 279 283 298 299 278 244 232 230 243 252 252 256 278 270 316 326 326 357 354 175 178 193 179 196 242 240 169 160 202 226 207 219 207 198 221 282
294 298 299 297 295 291 287 281 277 275 272 274 276 279 254 248 227 238 248 257 263 267 261 262 265 307 305 311 313 24 327 211 211 205 211 240 254 255 257 249 264 231 236 233 201 183 224
297 297 297 295 292 286 282 280 278 274 270 270 268 269 223 222 228 251 269 271 268 273 273 269 253 243 278 311 321 340 37 124 141 208 129 352 266 314 308 198 200 223 235 249 247 248 221
294 297 295 293 290 288 283 276 273 267 263 260 266 268 232 234 249 261 263 274 267 274 276 269 257 260 276 272 229 269 306 265 211 277 296 316 274 290 265 262 282 266 242 230 241 218 237
292 292 289 289 289 287 280 271 257 235 246 246 250 262 251 231 227 272 280 283 286 285 277 255 258 252 262 273 251 261 291 278 277 257 276 283 286 296 280 275 260 289 274 271 244 237 238
291 290 291 291 288 284 273 265 259 234 228 238 243 252 257 263 260 266 282 294 296 300 276 276 248 243 238 244 262 265 287 271 260 229 259 254 275 304 304 293 255 271 268 262 263 249 254
288 289 288 286 283 274 264 255 248 228 222 237 241 251 263 265 266 259 266 316 293 323 301 272 236 254 229 221 238 248 254 262 262 267 269 279 292 311 301 299 321 283 261 258 267 250 243
287 285 284 283 278 258 243 235 240 224 225 241 246 249 256 267 271 267 272 279 302 308 311 244 274 273 229 226 232 236 245 254 258 263 268 272 275 279 289 316 255 243 276 277 239 241 222
283 281 280 278 266 247 240 220 232 245 228 238 243 247 251 259 270 277 280 260 290 303 336 225 221 258 275 261 240 258 264 267 260 266 263 262 260 253 255 264 282 309 285 43 224 196 211
278 279 277 268 256 249 236 224 235 251 257 246 238 239 245 256 260 274 247 282 285 294 331 115 226 252 245 240 237 200 218 221 246 271 272 276 240 241 246 248 260 204 354 344 225 201 192
274 277 270 266 263 251 230 226 238 254 276 278 244 230 233 242 255 261 244 252 251 265 322 68 208 261 253 257 218 223 247 253 262 271 285 244 234 231 235 243 259 261 285 314 248 201 161
273 269 269 265 253 237 229 224 238 247 262 272 249 233 232 238 243 247 251 239 262 272 289 324 50 342 237 204 209 243 247 261 276 280 291 267 265 230 230 240 260 251 270 251 275 201 180
269 267 261 253 243 233 226 225 236 246 256 270 242 229 230 239 245 242 240 246 261 263 278 283 295 327 183 185 208 208 239 256 277 287 298 275 290 206 220 225 311 279 261 259 249 201 188
Height
3098 3097 3096 3096 3095 3094 3093 3092 3091 3089 3088 3086 3085 3085 3084 3082 3082 3081 3079 3078 3076 3075 3074 3074 3074 3071 3071 3071 3072 3066 3067 3067 3066 3065 3066 3065 3065 3067 3065 3067 3072 3067 3070 3073 3074 3077 3080
3093 3092 3092 3091 3091 3089 3088 3087 3086 3084 3083 3082 3080 3080 3079 3078 3077 3075 3074 3072 3070 3069 3068 3067 3067 3067 3066 3066 3065 3060 3060 3061 3062 3061 3061 3060 3061 3060 3058 3061 3064 3065 3066 3067 3069 3070 3073
3086 3087 3087 3086 3085 3084 3083 3082 3080 3079 3078 3077 3077 3075 3074 3073 3072 3070 3070 3069 3066 3064 3062 3062 3062 3060 3061 3061 3059 3057 3053 3054 3056 3055 3056 3057 3056 3056 3054 3054 3058 3060 3061 3062 3060 3065 3065
3083 3081 3082 3081 3080 3079 3078 3077 3076 3075 3073 3072 3072 3071 3070 3068 3066 3064 3063 3063 3062 3059 3058 3055 3055 3055 3054 3053 3054 3052 3051 3051 3051 3050 3050 3052 3052 3051 3050 3054 3053 3055 3057 3054 3056 3061 3061
3076 3077 3076 3076 3075 3075 3074 3073 3074 3072 3070 3068 3067 3066 3065 3064 3060 3059 3057 3058 3057 3054 3052 3050 3049 3049 3049 3047 3048 3047 3044 3047 3047 3047 3047 3047 3046 3046 3049 3050 3050 3051 3048 3049 3052 3057 3059
3071 3071 3072 3071 3071 3071 3070 3069 3068 3066 3064 3062 3061 3060 3059 3059 3056 3054 3051 3052 3050 3048 3047 3045 3043 3046 3044 3043 3042 3042 3041 3040 3041 3041 3041 3041 3039 3040 3042 3045 3043 3048 3046 3047 3048 3053 3055
3065 3066 3065 3065 3065 3064 3063 3062 3060 3059 3057 3056 3055 3055 3054 3052 3051 3049 3047 3046 3048 3043 3040 3039 3038 3039 3038 3038 3038 3037 3037 3035 3034 3036 3037 3036 3036 3032 3037 3041 3042 3043 3042 3041 3044 3048 3048
3059 3061 3059 3060 3058 3057 3056 3056 3054 3052 3051 3050 3049 3049 3048 3047 3046 3043 3040 3038 3039 3036 3031 3033 3031 3028 3031 3034 3030 3033 3031 3031 3032 3032 3034 3035 3030 3031 3033 3035 3036 3037 3037 3038 3039 3043 3044
3054 3054 3053 3052 3051 3050 3050 3049 3047 3046 3045 3044 3044 3043 3042 3042 3041 3040 3036 3036 3034 3032 3025 3023 3022 3022 3024 3024 3025 3027 3027 3025 3026 3029 3030 3031 3029 3029 3028 3030 3031 3032 3035 3037 3038 3037 3037
3048 3048 3048 3047 3045 3044 3044 3042 3042 3040 3038 3037 3037 3037 3037 3038 3039 3035 3032 3033 3032 3030 3023 3017 3012 3014 3016 3017 3020 3021 3021 3024 3025 3026 3028 3029 3026 3025 3025 3024 3027 3027 3033 3035 3036 3034 3031
3043 3043 3042 3041 3040 3038 3038 3037 3036 3034 3032 3030 3030 3032 3031 3030 3033 3030 3031 3030 3030 3030 3027 3016 3013 3012 3013 3016 3018 3019 3018 3019 3021 3022 3027 3024 3022 3021 3020 3017 3022 3023 3028 3028 3030 3029 3027
3038 3038 3037 3036 3035 3033 3031 3030 3029 3028 3026 3025 3023 3024 3026 3024 3028 3026 3026 3027 3029 3031 3021 3012 3012 3011 3012 3012 3013 3015 3018 3019 3020 3019 3020 3019 3019 3017 3015 3015 3017 3022 3023 3026 3027 3026 3021
3032 3033 3032 3030 3029 3027 3026 3023 3022 3022 3020 3019 3017 3018 3018 3020 3022 3021 3022 3023 3027 3022 3014 3012 3010 3009 3010 3011 3011 3012 3014 3015 3016 3017 3015 3013 3013 3013 3012 3013 3013 3019 3022 3023 3024 3021 3016
3027 3027 3026 3024 3022 3020 3019 3017 3017 3016 3015 3013 3012 3011 3011 3016 3015 3015 3019 3020 3019 3012 3009 3006 3005 3006 3005 3007 3008 3008 3010 3011 3012 3013 3011 3010 3011 3010 3008 3007 3010 3014 3018 3018 3016 3014 3014
3022 3021 3020 3018 3017 3015 3014 3013 3012 3011 3009 3008 3007 3004 3008 3007 3008 3010 3014 3012 3008 3010 3009 3006 3002 3004 3004 3004 3006 3004 3006 3007 3008 3009 3010 3010 3009 3008 3006 3005 3010 3011 3014 3016 3015 3015 3015
3015 3015 3013 3012 3010 3009 3008 3007 3006 3006 3005 3005 3003 3002 3002 3002 3003 3005 3006 3003 3003 3009 3008 3007 3005 3003 3001 2999 3000 3003 3002 3004 3004 3005 3006 3008 3008 3006 3005 3006 3008 3010 3013 3014 3014 3014 3013
3009 3008 3007 3005 3004 3003 3001 3001 3001 3001 3001 3000 2998 3000 3000 3000 2999 3000 2997 2995 2999 3003 3007 3007 3004 3003 3002 3000 2999 3000 2999 3001 3002 3002 3004 3006 3008 3008 3006 3004 3007 3007 3008 3010 3012 3012 3008
3002 3001 3000 2999 2998 2997 2996 2996 2996 2996 2995 2994 2993 2997 2997 2996 2998 2995 2993 2994 2997 2997 3004 3001 3002 3002 3002 3000 3000 3001 2999 2999 3000 3001 3003 3004 3004 3003 3002 3002 3003 3004 3005 3007 3006 3006 3007
2995 2994 2993 2993 2992 2991 2990 2989 2989 2990 2989 2989 2988 2991 2995 2994 2993 2991 2992 2992 2993 2994 2997 2998 2999 2998 2998 2999 3000 2998 2998 2999 3000 3000 3001 3002 3002 3002 2998 3000 3002 3002 3002 3002 3003 3004 3002
2988 2987 2986 2986 2985 2984 2983 2983 2983 2985 2985 2985 2986 2987 2991 2990 2990 2991 2991 2990 2989 2992 2991 2993 2992 2995 2995 2994 2997 2997 2997 2998 2997 2999 2999 3000 3001 3002 3001 3000 3000 2999 2999 3000 2999 2997 2998
2981 2980 2980 2979 2977 2977 2976 2977 2979 2980 2982 2982 2983 2983 2985 2986 2987 2988 2988 2987 2987 2987 2988 2989 2988 2991 2993 2993 2993 2993 2995 2997 2997 2997 2997 2998 2998 2998 2997 2996 2996 2995 2994 2993 2992 2992 2994
2973 2972 2971 2971 2970 2970 2970 2971 2973 2974 2977 2978 2979 2980 2981 2982 2984 2985 2985 2984 2985 2986 2986 2984 2986 2986 2988 2990 2992 2991 2994 2996 2996 2996 2996 2997 2997 2995 2994 2993 2992 2989 2989 2988 2988 2989 2988
2965 2965 2964 2964 2963 2964 2965 2966 2967 2969 2972 2971 2974 2976 2978 2978 2979 2982 2982 2982 2981 2981 2978 2979 2980 2981 2982 2986 2987 2989 2992 2993 2993 2994 2994 2996 2995 2994 2992 2991 2988 2986 2984 2984 2982 2982 2984
2957 2957 2957 2957 2957 2958 2960 2962 2964 2965 2966 2968 2970 2973 2974 2972 2974 2978 2978 2979 2979 2978 2975 2974 2974 2976 2979 2981 2984 2986 2988 2989 2989 2990 2991 2992 2994 2994 2991 2991 2986 2981 2980 2978 2977 2978 2979
2949 2950 2950 2950 2951 2953 2955 2957 2960 2962 2963 2962 2966 2968 2970 2969 2971 2973 2975 2975 2973 2973 2970 2970 2975 2976 2977 2979 2982 2984 2985 2985 2985 2986 2987 2988 2990 2990 2990 2989 2984 2978 2976 2975 2976 2976 2975
2942 2942 2943 2944 2946 2948 2950 2952 2955 2957 2958 2957 2959 2962 2964 2966 2967 2970 2971 2972 2973 2971 2970 2969 2972 2974 2976 2978 2979 2980 2982 2983 2983 2982 2982 2982 2985 2988 2988 2988 2983 2976 2976 2975 2973 2972 2971
2935 2935 2936 2937 2939 2940 2943 2947 2949 2951 2952 2952 2952 2956 2959 2961 2962 2967 2968 2970 2971 2971 2969 2969 2971 2973 2974 2976 2978 2980 2980 2981 2980 2980 2979 2978 2979 2981 2984 2985 2978 2974 2976 2973 2976 2977 2971
2927 2928 2929 2929 2931 2934 2937 2941 2944 2946 2948 2947 2948 2952 2954 2956 2959 2963 2964 2968 2969 2970 2969 2969 2972 2972 2973 2975 2977 2977 2978 2978 2977 2977 2977 2978 2977 2977 2980 2982 2978 2974 2972 2975 2973 2972 2973
2920 2920 2921 2923 2925 2928 2932 2936 2938 2941 2943 2943 2944 2948 2950 2953 2955 2956 2960 2964 2966 2968 2968 2969 2969 2970 2973 2974 2975 2975 2976 2976 2976 2975 2975 2975 2975 2971 2973 2971 2971 2970 2970 2969 2969 2972 2970